Location: Suzhou
(31.3110°N, 120.6180°E)
Time: 16:39:57
(UTC+08:00)

CUBESAT XI-V - Visible Passes

Search period start: 26 May 2024 00:00
Search period end: 05 June 2024 00:00
Orbit: 657 x 680 km, 98.2° (Epoch: 25 May)

Date Brightness Start Highest point End Pass type
(mag) Time Alt. Az. Time Alt. Az. Time Alt. Az.
26 May ? 01:59:19 47° NNE 01:59:19 47° NNE 02:02:44 10° N visible
27 May ? 00:53:43 11° ENE 00:53:58 11° ENE 00:55:13 10° NE visible
27 May ? 02:31:54 38° NW 02:31:54 38° NW 02:34:57 10° NNW visible
28 May ? 01:26:18 25° ENE 01:26:18 25° ENE 01:29:37 10° NNE visible
28 May ? 03:04:29 19° WNW 03:04:29 19° WNW 03:06:25 10° NW visible
29 May ? 01:58:53 49° NNE 01:58:53 49° NNE 02:02:27 10° N visible
30 May ? 00:53:17 11° ENE 00:53:41 11° ENE 00:54:50 10° NE visible
30 May ? 02:31:27 41° NW 02:31:27 41° NW 02:34:39 10° NNW visible
31 May ? 01:25:51 25° ENE 01:25:51 25° ENE 01:29:17 10° NNE visible
31 May ? 03:04:02 19° WNW 03:04:02 19° WNW 03:06:07 10° NW visible
01 Jun ? 01:58:25 51° NE 01:58:25 51° NE 02:02:07 10° N visible
02 Jun ? 00:52:49 10° ENE 00:53:21 11° ENE 00:54:22 10° NE visible
02 Jun ? 02:30:59 43° NW 02:30:59 43° NW 02:34:19 10° NNW visible
03 Jun ? 01:25:22 25° ENE 01:25:22 25° ENE 01:28:55 10° NNE visible
03 Jun ? 03:03:33 20° WNW 03:03:33 20° WNW 03:05:46 10° NW visible
04 Jun ? 01:57:55 52° NE 01:57:55 52° NE 02:01:44 10° N visible
